Location: Palomar Mountain Lodge
(33.3110°N, 116.8495°W)
Time: 02:25:12
(UTC-07:00)

Terra - Pass Details

Date: 19 May 2017
Orbit: 701 x 703 km, 98.2° (Epoch: 16 October)

Event Time Altitude Azimuth Distance (km) Brightness Sun altitude
Exits shadow 23:17:36 35° 319° (NW) 1,133 3.3 -32.8°
Drops below altitude 10° 23:20:30 10° 338° (NNW) 2,171 5.2 -33.1°
Sets 23:22:49 0° 343° (NNW) 3,093 6.2 -33.3°
